Find Kosmos-203

NORAD ID: 3129 Int'l Des: 1968-011 Owner: OKB10 Country: SU operational
LEOCIRCULAR

Current View

Loading 3D Globe...

About Kosmos-203

Description loading...

Upcoming Passes

Passes for default location (London). Set your location on the main map for personalized predictions.

Altitude History

Loading altitude history...

Two-Line Element Set

1 3129U 68011A 26151.21433980 .00000041 00000-0 15389-3 0 9990
2 3129 74.0502 119.2112 0012793 316.1154 142.4262 13.18304133803745
Epoch: May 31, 2026 • Age: 9 hours

Current Status

Altitude 1186.8 km
Velocity 7.26 km/s
Sub-Earth Point 0.36°N, 23.4°E
Type other

Most Searched